Location: Mount Wilson Observatory
(34.2257°N, 118.0571°W)
Time: 12:35:17
(UTC-08:00)

ATLAS 3B CENTAUR R/B - Visible Passes

Search period start: 27 February 2017 00:00
Search period end: 09 March 2017 00:00
Orbit: 223 x 6234 km, 28.1° (Epoch: 27 February)

Date Brightness Start Highest point End Pass type
(mag) Time Alt. Az. Time Alt. Az. Time Alt. Az.
27 Feb 5.0 18:27:39 10° SW 18:59:20 45° SSE 19:09:40 21° ESE visible
27 Feb 4.8 21:30:02 10° WSW 21:45:50 45° SW 21:45:50 45° SW visible
28 Feb 5.4 17:46:07 10° SW 18:20:02 44° SSE 18:34:54 11° E visible
28 Feb 4.4 20:48:09 10° WSW 21:11:01 59° SSW 21:11:01 59° SSW visible
01 Mar 4.3 20:05:37 10° WSW 20:33:44 61° S 20:35:58 56° SE visible
01 Mar 5.8 23:08:17 10° W 23:12:03 17° W 23:12:03 17° W visible
02 Mar 4.5 19:22:41 10° WSW 19:54:40 60° S 20:00:40 41° ESE visible
02 Mar 5.3 22:26:49 10° W 22:36:43 30° WSW 22:36:43 30° WSW visible
03 Mar 4.9 18:39:36 10° SW 19:14:54 59° SSE 19:25:07 26° E visible
03 Mar 4.8 21:44:23 10° W 22:01:10 48° WSW 22:01:10 48° WSW visible
04 Mar 5.3 17:56:38 10° SW 18:34:24 57° SSE 18:49:20 15° E visible
04 Mar 4.4 21:01:03 10° WSW 21:25:21 65° SSW 21:25:21 65° SSW visible
05 Mar 4.3 20:17:02 10° WSW 20:47:04 69° S 20:49:18 63° SE visible
05 Mar 5.9 23:21:01 10° W 23:25:17 18° W 23:25:17 18° W visible
06 Mar 4.5 19:32:38 10° WSW 20:06:52 69° S 20:13:00 45° ESE visible
06 Mar 5.4 22:38:12 10° W 22:48:58 31° W 22:48:58 31° W visible
07 Mar 4.9 18:48:09 10° WSW 19:25:54 69° S 19:36:27 29° E visible
07 Mar 4.9 21:54:24 10° W 22:12:23 48° WSW 22:12:23 48° WSW visible
08 Mar 5.3 18:03:53 10° WSW 18:44:06 67° SSE 18:59:40 17° E visible
08 Mar 4.5 21:09:42 10° W 21:35:34 66° SSW 21:35:34 66° SSW visible
